TimeCST,TemperatureF,Dew PointF,Humidity,Sea Level PressureIn,VisibilityMPH,Wind Direction,Wind SpeedMPH,Gust SpeedMPH,PrecipitationIn,Events,Conditions,WindDirDegrees,DateUTC
12:13 AM,-14.8,-20.2,77,30.56,10.0,NW,12.7,-,N/A,,Clear,310,2014-01-21 06:13:00
12:33 AM,-14.8,-20.2,77,30.56,10.0,NW,10.4,-,N/A,,Clear,310,2014-01-21 06:33:00
12:53 AM,-14.8,-20.2,77,30.54,10.0,NW,9.2,-,N/A,,Clear,310,2014-01-21 06:53:00
1:13 AM,-14.8,-20.2,77,30.54,10.0,NW,8.1,-,N/A,,Clear,320,2014-01-21 07:13:00
1:33 AM,-14.8,-20.2,77,30.53,10.0,NNW,8.1,-,N/A,,Clear,330,2014-01-21 07:33:00
1:53 AM,-14.8,-20.2,77,30.52,10.0,NNW,11.5,-,N/A,,Clear,330,2014-01-21 07:53:00
2:13 AM,-14.8,-20.2,77,30.52,10.0,NNW,6.9,-,N/A,,Clear,330,2014-01-21 08:13:00
2:33 AM,-14.8,-22.0,70,30.52,10.0,Calm,Calm,-,N/A,,Clear,0,2014-01-21 08:33:00
2:53 AM,-14.8,-20.2,77,30.51,10.0,NNW,4.6,-,N/A,,Clear,330,2014-01-21 08:53:00
3:13 AM,-16.6,-22.0,76,30.51,10.0,NW,3.5,-,N/A,,Clear,310,2014-01-21 09:13:00
3:33 AM,-16.6,-23.8,70,30.49,10.0,Calm,Calm,-,N/A,,Clear,0,2014-01-21 09:33:00
3:54 AM,-16.6,-23.8,70,30.47,10.0,Calm,Calm,-,N/A,,Clear,0,2014-01-21 09:54:00
4:14 AM,-18.4,-25.6,70,30.46,10.0,Calm,Calm,-,N/A,,Clear,0,2014-01-21 10:14:00
4:33 AM,-18.4,-23.8,76,30.46,10.0,Calm,Calm,-,N/A,,Clear,0,2014-01-21 10:33:00
4:53 AM,-18.4,-23.8,76,30.46,10.0,Calm,Calm,-,N/A,,Clear,0,2014-01-21 10:53:00
5:14 AM,-18.4,-23.8,76,30.45,10.0,Calm,Calm,-,N/A,,Clear,0,2014-01-21 11:14:00
5:33 AM,-18.4,-23.8,76,30.43,10.0,Calm,Calm,-,N/A,,Clear,0,2014-01-21 11:33:00
5:53 AM,-16.6,-23.8,70,30.43,10.0,Calm,Calm,-,N/A,,Clear,0,2014-01-21 11:53:00
6:14 AM,-16.6,-23.8,70,30.43,10.0,Calm,Calm,-,N/A,,Clear,0,2014-01-21 12:14:00
6:33 AM,-16.6,-20.2,84,30.41,10.0,Calm,Calm,-,N/A,,Clear,0,2014-01-21 12:33:00
6:53 AM,-14.8,-20.2,77,30.40,10.0,Calm,Calm,-,N/A,,Clear,0,2014-01-21 12:53:00
7:13 AM,-13.0,-18.4,77,30.40,10.0,South,3.5,-,N/A,,Clear,180,2014-01-21 13:13:00
7:34 AM,-11.2,-16.6,77,30.39,10.0,SSW,3.5,-,N/A,,Clear,200,2014-01-21 13:34:00
7:53 AM,-11.2,-16.6,77,30.38,10.0,Calm,Calm,-,N/A,,Clear,0,2014-01-21 13:53:00
8:13 AM,-9.4,-16.6,71,30.38,10.0,Calm,Calm,-,N/A,,Clear,0,2014-01-21 14:13:00
8:33 AM,-9.4,-16.6,71,30.36,10.0,South,4.6,-,N/A,,Clear,180,2014-01-21 14:33:00
8:53 AM,-7.6,-16.6,65,30.35,10.0,South,5.8,-,N/A,,Scattered Clouds,190,2014-01-21 14:53:00
9:13 AM,-7.6,-16.6,65,30.33,10.0,South,8.1,-,N/A,,Clear,170,2014-01-21 15:13:00
9:34 AM,-7.6,-14.8,71,30.32,10.0,South,8.1,-,N/A,,Clear,170,2014-01-21 15:34:00
9:53 AM,-5.8,-14.8,65,30.31,10.0,SSE,9.2,-,N/A,,Clear,150,2014-01-21 15:53:00
10:13 AM,-5.8,-14.8,65,30.29,10.0,SSE,11.5,-,N/A,,Scattered Clouds,150,2014-01-21 16:13:00
10:33 AM,-4.0,-14.8,60,30.28,10.0,SSE,8.1,-,N/A,,Clear,160,2014-01-21 16:33:00
10:53 AM,-2.2,-13.0,60,30.27,10.0,SSE,10.4,-,N/A,,Scattered Clouds,150,2014-01-21 16:53:00
11:13 AM,-2.2,-11.2,66,30.25,10.0,SSE,11.5,-,N/A,,Scattered Clouds,150,2014-01-21 17:13:00
11:34 AM,-2.2,-11.2,66,30.23,10.0,SSE,10.4,-,N/A,,Scattered Clouds,160,2014-01-21 17:34:00
11:53 AM,-0.4,-11.2,60,30.21,5.0,SSE,12.7,-,N/A,Snow,Light Snow,160,2014-01-21 17:53:00
12:13 PM,-0.4,-9.4,66,30.19,3.0,SSE,11.5,-,N/A,Snow,Light Snow,160,2014-01-21 18:13:00
12:33 PM,-0.4,-7.6,72,30.17,2.5,SSE,11.5,17.3,N/A,Snow,Light Snow,150,2014-01-21 18:33:00
12:53 PM,-0.4,-7.6,72,30.16,3.0,SSE,10.4,-,N/A,Snow,Light Snow,160,2014-01-21 18:53:00
1:13 PM,1.4,-5.8,72,30.14,1.2,SSE,9.2,-,N/A,Snow,Light Snow,150,2014-01-21 19:13:00
1:33 PM,1.4,-4.0,78,30.13,1.0,SSE,9.2,-,N/A,Snow,Light Snow,150,2014-01-21 19:33:00
1:53 PM,1.4,-4.0,78,30.10,1.5,SE,10.4,16.1,N/A,Snow,Light Snow,140,2014-01-21 19:53:00
2:13 PM,3.2,-4.0,72,30.07,1.2,SE,15.0,-,N/A,Snow,Light Snow,130,2014-01-21 20:13:00
2:33 PM,3.2,-2.2,78,30.05,2.0,SE,15.0,18.4,N/A,Snow,Light Snow,140,2014-01-21 20:33:00
2:53 PM,3.2,-2.2,78,30.05,1.2,SE,12.7,-,N/A,Snow,Light Snow,130,2014-01-21 20:53:00
3:13 PM,3.2,-2.2,78,30.05,1.5,SE,10.4,-,N/A,Snow,Light Snow,140,2014-01-21 21:13:00
3:34 PM,3.2,-0.4,85,30.05,0.8,SSE,8.1,-,N/A,Snow,Light Snow,150,2014-01-21 21:34:00
3:53 PM,5.0,-0.4,78,30.06,0.8,SSE,8.1,-,N/A,Snow,Light Snow,160,2014-01-21 21:53:00
4:13 PM,5.0,-0.4,78,30.05,1.5,South,9.2,-,N/A,Snow,Light Snow,170,2014-01-21 22:13:00
4:33 PM,5.0,-0.4,78,30.06,2.0,South,9.2,-,N/A,Snow,Light Snow,180,2014-01-21 22:33:00
4:53 PM,6.8,1.4,79,30.06,5.0,SSE,6.9,-,N/A,Snow,Light Snow,160,2014-01-21 22:53:00
5:13 PM,6.8,1.4,79,30.06,7.0,South,10.4,-,N/A,Snow,Light Snow,170,2014-01-21 23:13:00
5:33 PM,6.8,1.4,79,30.05,7.0,SSE,10.4,-,N/A,Snow,Light Snow,160,2014-01-21 23:33:00
5:53 PM,6.8,1.4,79,30.05,7.0,South,5.8,-,N/A,Snow,Light Snow,170,2014-01-21 23:53:00
6:13 PM,6.8,1.4,79,30.04,10.0,South,6.9,-,N/A,,Overcast,170,2014-01-22 00:13:00
6:34 PM,6.8,1.4,79,30.03,7.0,South,6.9,-,N/A,Snow,Light Snow,170,2014-01-22 00:34:00
6:54 PM,6.8,1.4,79,30.03,7.0,South,8.1,-,N/A,,Overcast,180,2014-01-22 00:54:00
7:13 PM,6.8,3.2,85,30.03,10.0,South,4.6,-,N/A,Snow,Light Snow,180,2014-01-22 01:13:00
7:33 PM,8.6,3.2,79,30.02,10.0,South,6.9,-,N/A,Snow,Light Snow,190,2014-01-22 01:33:00
7:53 PM,8.6,3.2,79,30.01,10.0,South,4.6,-,N/A,Snow,Light Snow,180,2014-01-22 01:53:00
8:13 PM,8.6,3.2,79,30.00,10.0,SSW,4.6,-,N/A,Snow,Light Snow,200,2014-01-22 02:13:00
8:33 PM,8.6,3.2,79,30.00,10.0,SSW,4.6,-,N/A,,Overcast,210,2014-01-22 02:33:00
8:54 PM,8.6,3.2,79,30.00,10.0,WSW,5.8,-,N/A,Snow,Light Snow,240,2014-01-22 02:54:00
9:13 PM,8.6,3.2,79,29.99,7.0,WSW,4.6,-,N/A,Snow,Light Snow,250,2014-01-22 03:13:00
9:33 PM,10.4,5.0,79,29.98,7.0,WSW,6.9,-,N/A,Snow,Light Snow,250,2014-01-22 03:33:00
9:53 PM,10.4,6.8,85,29.99,7.0,West,6.9,-,N/A,Snow,Light Snow,280,2014-01-22 03:53:00
10:13 PM,10.4,6.8,85,29.99,10.0,WNW,12.7,-,N/A,Snow,Light Snow,300,2014-01-22 04:13:00
10:33 PM,12.2,8.6,85,29.99,4.0,NW,18.4,24.2,N/A,Snow,Light Snow,320,2014-01-22 04:33:00
10:53 PM,14.0,8.6,79,29.99,3.0,NNW,20.7,26.5,N/A,Snow,Light Snow,330,2014-01-22 04:53:00
11:13 PM,14.0,8.6,79,30.00,4.0,NNW,20.7,25.3,N/A,Snow,Light Snow,330,2014-01-22 05:13:00
11:33 PM,12.2,8.6,85,30.01,3.0,NNW,17.3,27.6,N/A,Snow,Light Snow,330,2014-01-22 05:33:00
11:53 PM,12.2,8.6,85,30.01,4.0,NNW,18.4,25.3,0.01,,Overcast,330,2014-01-22 05:53:00